Simultaneous Nadir Overpasses (SNOs) Predictions

Prediction of SNOs between FY3D and METOP-A Satellite Orbit:

Table of predicted SNOs for the next 14.0 days since TLE Epoch: 11/6/2021
Index Date (FY3D) Time (FY3D) Lat,Lon (FY3D) SZA (FY3D ) Date (METOP-A) Time (METOP-A) Lat,Lon (METOP-A) SZA (METOP-A ) Distance(km) Time Diff (sec)
1 11/10/2021 11:03:46 78.16, -7.61 95.90 11/10/2021 11:04:50 78.12, -3.59 95.63 92.07 64
2 11/10/2021 11:54:26 -77.99, 160.60 84.31 11/10/2021 11:55:35 -77.96, 162.98 84.48 55.18 69
3 11/10/2021 12:45:07 77.84, -31.31 95.51 11/10/2021 12:46:19 77.80, -30.45 95.42 20.66 72
4 11/10/2021 13:35:48 -77.71, 136.65 84.64 11/10/2021 13:37:02 -77.73, 136.55 84.63 3.23 74
5 11/10/2021 14:26:33 77.72, -56.09 95.39 11/10/2021 14:27:42 77.74, -56.09 95.39 1.83 69
6 11/10/2021 15:17:17 -77.72, 111.25 84.62 11/10/2021 15:18:24 -77.71, 111.11 84.63 3.56 67
7 11/10/2021 16:08:02 77.73, -81.49 95.41 11/10/2021 16:09:04 77.72, -81.53 95.39 1.46 62
8 11/10/2021 16:58:46 -77.72, 85.86 84.59 11/10/2021 16:59:45 -77.73, 85.86 84.59 1.19 59
9 11/10/2021 17:49:31 77.73,-106.88 95.44 11/10/2021 17:50:25 77.74,-106.77 95.43 2.65 54
10 11/10/2021 18:40:15 -77.73, 60.47 84.57 11/10/2021 18:41:07 -77.71, 60.42 84.59 2.00 52
11 11/10/2021 19:31:00 77.74,-132.27 95.46 11/10/2021 19:31:47 77.72,-132.21 95.43 2.55 47
12 11/10/2021 20:21:44 -77.73, 35.08 84.54 11/10/2021 20:22:28 -77.73, 35.18 84.55 2.40 44
13 11/10/2021 21:12:28 77.70,-157.46 95.44 11/10/2021 21:13:08 77.74,-157.45 95.47 4.33 40
14 11/10/2021 22:03:13 -77.73, 9.69 84.52 11/10/2021 22:03:50 -77.71, 9.74 84.55 2.96 37
15 11/10/2021 22:53:57 77.70, 177.15 95.46 11/10/2021 22:54:30 77.72, 177.11 95.47 1.72 33
16 11/10/2021 23:44:41 -77.70, -15.50 84.54 11/10/2021 23:45:11 -77.73, -15.50 84.51 3.76 30
17 11/11/2021 00:35:26 77.71, 151.75 95.49 11/11/2021 00:35:52 77.70, 151.67 95.47 2.52 26
18 11/11/2021 01:26:10 -77.70, -40.89 84.52 11/11/2021 01:26:33 -77.71, -40.94 84.51 1.41 23
19 11/11/2021 02:16:55 77.71, 126.36 95.51 11/11/2021 02:17:13 77.72, 126.42 95.51 1.51 18
20 11/11/2021 03:07:39 -77.71, -66.29 84.49 11/11/2021 03:07:55 -77.69, -66.38 84.51 2.95 16
21 11/11/2021 03:58:24 77.72, 100.97 95.54 11/11/2021 03:58:35 77.70, 100.99 95.51 2.54 11
22 11/11/2021 04:49:08 -77.71, -91.68 84.47 11/11/2021 04:49:16 -77.71, -91.62 84.47 1.30 8
23 11/11/2021 05:39:53 77.72, 75.58 95.56 11/11/2021 05:39:56 77.72, 75.74 95.55 3.93 3
24 11/11/2021 06:30:37 -77.72,-117.07 84.44 11/11/2021 06:30:38 -77.69,-117.06 84.47 2.98 1
25 11/11/2021 07:21:21 77.69, 50.39 95.54 11/11/2021 07:21:18 77.70, 50.30 95.55 2.25 3
26 11/11/2021 08:12:05 -77.68,-142.26 84.47 11/11/2021 08:11:59 -77.71,-142.31 84.43 3.63 6
27 11/11/2021 09:02:50 77.69, 24.99 95.56 11/11/2021 09:02:39 77.72, 25.06 95.59 3.25 11
28 11/11/2021 09:53:34 -77.68,-167.65 84.44 11/11/2021 09:53:21 -77.69,-167.74 84.43 2.26 13
29 11/11/2021 10:44:19 77.70, -0.40 95.59 11/11/2021 10:44:01 77.70, -0.38 95.59 0.41 18
30 11/11/2021 11:35:03 -77.69, 166.96 84.42 11/11/2021 11:34:42 -77.71, 167.01 84.39 2.78 21
31 11/11/2021 12:25:48 77.70, -25.79 95.61 11/11/2021 12:25:23 77.67, -25.82 95.60 3.01 25
32 11/11/2021 13:16:32 -77.69, 141.56 84.39 11/11/2021 13:16:04 -77.69, 141.57 84.39 0.47 28
33 11/11/2021 14:07:17 77.71, -51.18 95.64 11/11/2021 14:06:44 77.70, -51.06 95.63 3.01 33
34 11/11/2021 14:58:01 -77.70, 116.17 84.37 11/11/2021 14:57:26 -77.67, 116.14 84.39 3.41 35
35 11/11/2021 15:48:45 77.67, -76.37 95.61 11/11/2021 15:48:06 77.67, -76.50 95.63 3.12 39
36 11/11/2021 16:39:30 -77.70, 90.78 84.34 11/11/2021 16:38:47 -77.69, 90.89 84.35 2.96 43
37 11/11/2021 17:30:14 77.67,-101.77 95.64 11/11/2021 17:29:27 77.70,-101.75 95.67 2.51 47
38 11/11/2021 18:20:57 -77.67, 65.59 84.37 11/11/2021 18:20:08 -77.67, 65.45 84.35 3.27 49
39 11/11/2021 19:11:42 77.68,-127.16 95.66 11/11/2021 19:10:48 77.67,-127.19 95.67 0.78 54
40 11/11/2021 20:02:26 -77.67, 40.20 84.34 11/11/2021 20:01:29 -77.69, 40.21 84.31 2.15 57
41 11/11/2021 20:53:11 77.68,-152.55 95.69 11/11/2021 20:52:09 77.70,-152.43 95.71 3.19 62
42 11/11/2021 21:43:55 -77.67, 14.81 84.32 11/11/2021 21:42:51 -77.67, 14.77 84.31 1.15 64
43 11/11/2021 22:34:40 77.69,-177.94 95.71 11/11/2021 22:33:31 77.67,-177.87 95.71 2.32 69
44 11/11/2021 23:25:24 -77.68, -10.59 84.29 11/11/2021 23:24:12 -77.69, -10.48 84.27 2.84 72
45 11/12/2021 00:16:07 77.61, 157.06 95.64 11/12/2021 00:14:54 77.61, 156.50 95.68 13.46 73
46 11/12/2021 01:06:49 -77.52, -35.19 84.47 11/12/2021 01:05:37 -77.54, -36.48 84.36 31.30 72
47 11/12/2021 01:57:29 77.32, 133.04 95.31 11/12/2021 01:56:23 77.28, 129.76 95.47 80.26 66



Historial Predications of SNOs between FY3D and METOP-A
